Location: Unspecified
(44.0632°N, 0.0000°E)
Time: 14:10:05
(UTC+00:00)

VELOX 1 - Visible Passes

Search period start: 04 April 2026 00:00
Search period end: 14 April 2026 00:00
Orbit: 570 x 581 km, 98.3° (Epoch: 29 March)

Date Brightness Start Highest point End Pass type
(mag) Time Alt. Az. Time Alt. Az. Time Alt. Az.
8 Apr ? 23:48:40 10° N 23:48:43 10° N 23:48:43 10° N visible
9 Apr ? 23:52:08 10° N 23:52:18 11° N 23:52:18 11° N visible
10 Apr ? 23:55:35 10° N 23:55:51 12° N 23:55:51 12° N visible
11 Apr ? 23:59:02 10° N 23:59:23 12° N 23:59:23 12° N visible
13 Apr ? 00:02:28 10° N 00:02:55 12° N 00:02:55 12° N visible
